Location: Linton
(52.0940°N, 0.2850°E)
Time: 18:44:10
(UTC+00:00)

ISS - Pass Details

Date: 13 November 2017
Orbit: 401 x 407 km, 51.6° (Epoch: 25 November)

Event Time Altitude Azimuth Distance (km) Brightness Sun altitude
Exits shadow 04:02:56 14° 99° (E) 1,239 -0.6 -29.4°
Drops below altitude 10° 04:03:28 10° 99° (E) 1,456 -0.2 -29.3°
Sets 04:05:33 0° 98° (E) 2,314 1.1 -29.0°
